Dewpoint
46 39 34 34 29 30 27 22 23 27 29 30 27 27 24 30 35 38 44 46 49 51 49 49 53 53 54 54 54 54 56 55 54 51 49 47 44 42 42 42 42 42 43 43
42 38 32 31 28 26 29 23 25 29 26 30 31 26 27 28 29 32 36 40 41 40 41 44 47 49 50 51 52 53 56 54 54 53 50 48 44 41 40 40 39 40 40 40
40 39 38 31 29 24 22 23 25 25 25 22 19 20 20 22 28 28 30 32 33 35 37 43 45 46 47 48 49 51 54 54 53 49 45 43 40 40 40 38 37 38 38 39
40 40 40 36 25 22 20 24 26 25 23 21 23 17 21 21 20 22 25 27 29 29 38 43 44 44 45 45 45 47 50 53 51 48 46 44 44 42 41 38 36 36 36 36
35 39 40 36 31 25 24 29 24 23 19 21 21 18 19 11 15 17 19 21 24 29 37 43 44 43 42 42 44 45 49 50 50 48 46 45 44 41 39 36 34 33 34 34
37 40 42 39 35 30 28 24 23 23 21 19 19 19 20 13 15 15 16 19 21 25 39 42 42 40 39 40 43 44 47 48 48 47 45 45 42 38 37 34 33 32 32 32
35 35 38 40 38 37 27 25 24 19 15 18 16 16 19 20 9 15 15 20 30 32 39 40 40 39 38 39 40 42 44 45 45 46 45 44 41 38 37 34 32 30 30 30
30 27 35 39 37 35 34 26 24 16 16 17 19 16 19 18 24 26 27 26 33 34 37 39 39 39 38 38 38 40 41 41 42 44 44 42 39 38 36 35 33 29 28 30
29 29 33 34 35 37 32 24 25 20 16 16 16 15 14 18 20 28 28 31 33 34 35 37 37 37 37 36 37 38 39 39 41 42 41 39 38 37 36 34 31 29 30 30
29 29 32 33 33 33 31 28 26 26 16 9 10 8 13 8 17 26 29 31 32 33 34 35 36 36 36 35 36 36 38 38 38 38 38 38 37 36 34 31 29 28 29 29
31 30 32 32 31 28 24 26 27 27 24 19 14 14 10 13 13 21 28 31 32 33 35 35 35 35 35 35 34 34 36 36 34 35 35 35 34 32 31 29 28 28 28 28
33 31 29 31 31 33 29 21 20 24 19 19 18 15 12 14 20 22 26 29 31 33 34 35 35 35 34 33 32 32 33 33 32 32 31 32 30 29 28 27 26 27 27 28
33 31 26 29 32 31 29 27 20 21 21 19 18 20 11 25 27 23 24 26 28 31 33 35 35 34 34 33 31 30 30 31 30 29 29 28 28 28 27 26 26 27 27 27
35 29 24 21 22 29 28 27 23 19 19 18 15 6 6 17 22 26 27 26 28 32 34 34 34 34 33 33 30 28 28 28 29 27 27 27 27 27 27 27 26 26 26 26
30 25 24 25 24 26 27 28 25 22 20 18 18 11 7 10 19 23 26 30 31 32 34 34 34 33 33 32 31 28 27 27 27 26 26 26 26 27 27 27 26 26 25 25
29 24 25 23 27 26 23 27 27 26 22 19 20 19 17 17 21 23 24 27 31 32 34 34 34 34 33 32 32 29 27 27 27 26 26 25 26 26 26 26 26 25 24 24
28 26 23 15 24 26 19 24 25 27 26 23 20 19 22 21 21 21 23 25 27 31 33 34 34 34 33 32 32 31 28 27 27 26 26 26 26 25 25 26 26 25 24 23
29 27 27 19 22 15 20 24 25 24 24 26 24 22 21 20 23 25 24 24 26 28 32 34 35 34 33 33 32 31 30 28 27 26 26 26 26 25 25 25 25 24 24 23
36 29 25 23 17 20 19 23 25 24 22 26 26 26 25 25 28 26 28 27 27 28 31 33 35 35 33 33 32 31 30 29 28 27 27 26 26 26 25 25 25 24 24 23
36 35 29 20 16 11 18 22 27 25 20 23 27 26 26 27 23 22 26 30 30 30 31 34 34 34 34 33 32 31 30 29 29 29 28 27 27 26 25 25 24 24 24 24
31 30 28 25 20 21 23 23 27 17 19 15 21 27 29 28 27 28 31 30 31 31 32 32 31 33 32 32 31 31 29 30 29 27 27 27 26 26 26 25 24 23 24 24
26 28 26 25 21 19 24 26 22 24 21 14 16 23 28 29 29 29 31 30 30 31 31 31 32 29 26 29 31 29 29 27 26 27 26 26 26 27 26 25 23 21 22 22
28 30 29 30 26 27 27 25 26 25 18 15 16 23 28 29 28 29 29 27 28 29 28 27 28 26 24 24 26 28 25 24 24 25 25 24 22 25 25 24 22 20 21 22
29 32 32 30 30 30 29 29 27 27 24 22 21 29 28 27 26 24 23 22 24 23 23 22 26 26 22 20 22 22 22 20 23 23 21 19 21 20 18 22 23 23 21 22
28 31 29 28 28 30 30 29 29 30 27 21 21 25 28 27 25 23 22 22 22 21 19 20 23 22 17 16 18 16 17 18 19 16 15 15 16 15 16 18 20 22 19 23
29 28 28 27 30 30 28 29 30 30 30 23 19 22 22 24 25 23 22 21 20 20 18 20 19 19 15 15 16 14 11 14 15 16 15 14 15 13 14 14 15 24 25 26
Lifted_Index
3 2 2 3 3 2 1 2 2 3 3 2 2 2 3 3 2 2 2 1 1 1 1 0 0 0 -0 -0 -1 -1 -1 -1 -1 -0 -0 -0 0 1 1 3 5 7 9 9
3 3 3 3 3 2 2 2 2 2 2 2 2 3 3 4 3 3 2 2 2 1 1 1 0 0 -0 -0 -0 -1 -1 -1 -1 -1 -1 -0 0 1 2 4 6 8 8 9
3 3 4 4 4 3 3 3 3 2 2 2 2 3 3 4 5 5 4 4 3 3 2 2 2 2 1 0 -0 -0 -1 -1 -1 -1 -0 0 1 3 4 6 7 8 8 8
3 3 4 4 5 5 4 4 4 3 3 3 3 3 3 4 5 6 6 6 5 5 4 4 4 4 3 1 0 0 -0 -1 -1 -0 0 2 3 4 6 7 8 8 8 8
3 3 4 4 5 6 5 5 5 5 4 4 4 4 4 5 5 6 6 6 6 5 5 6 6 5 4 2 1 1 0 -0 -0 1 2 3 4 5 6 7 8 8 8 9
3 4 4 4 5 6 6 5 4 4 4 4 4 5 5 5 6 6 6 6 5 5 5 6 6 5 3 2 2 1 1 1 1 2 3 4 5 6 6 7 8 8 9 10
3 3 4 4 5 5 5 4 3 2 2 3 4 5 6 6 6 5 5 5 5 5 5 6 6 5 3 2 2 1 1 2 3 4 5 6 6 6 7 7 8 8 10 11
2 2 4 4 4 4 4 4 3 2 2 3 5 5 6 7 6 5 5 4 4 5 6 6 6 5 4 3 2 2 2 2 3 5 6 7 7 7 7 7 8 9 11 12
2 3 4 5 4 4 3 3 3 2 2 3 4 5 6 6 6 5 5 4 4 5 6 7 7 6 5 5 4 3 3 4 5 6 7 7 7 7 7 7 8 10 11 12
2 3 4 5 4 4 3 3 3 3 2 2 3 4 5 6 6 5 5 4 5 6 8 9 9 8 7 7 6 6 6 6 7 8 8 8 7 7 7 7 9 10 11 11
2 2 3 3 4 4 3 3 3 2 1 1 2 3 5 6 6 6 5 5 6 7 9 9 10 10 9 9 8 8 8 8 8 9 8 8 7 7 7 8 10 11 11 11
2 2 2 2 3 4 4 3 3 2 2 2 2 3 5 7 7 6 6 7 8 8 9 9 10 10 10 9 9 9 9 9 9 9 8 8 7 7 8 9 10 10 10 10
3 2 1 1 2 3 3 3 3 3 2 2 2 3 5 6 6 6 7 7 8 8 9 9 9 10 9 9 9 9 9 10 10 9 8 8 8 8 9 10 10 10 10 10
4 3 2 2 2 3 2 2 3 3 3 3 3 4 5 5 5 6 6 7 8 8 8 8 9 9 9 8 8 9 9 9 9 8 8 8 8 9 9 9 9 10 10 10
4 3 3 3 3 3 3 3 3 3 3 3 3 4 4 5 6 6 7 7 7 7 7 8 9 9 8 8 8 8 8 8 8 7 7 8 9 9 9 8 9 9 10 10
4 4 3 3 4 4 4 4 4 4 4 3 4 4 5 6 6 7 7 7 7 7 7 8 8 8 8 7 7 7 7 7 7 6 7 8 9 8 8 8 9 9 10 10
4 4 3 3 4 4 4 5 5 5 5 5 5 5 6 7 7 7 8 8 8 7 8 8 8 8 7 7 7 7 7 6 6 6 7 8 8 8 8 8 8 9 10 10
4 4 3 3 3 3 4 6 6 6 6 6 7 7 7 7 7 8 8 9 9 8 8 8 8 7 7 7 7 7 7 6 6 6 7 8 8 7 7 7 8 9 9 10
4 3 3 2 2 3 4 5 6 5 6 7 7 7 7 7 8 8 8 9 9 8 8 7 7 7 7 6 6 6 6 6 6 6 7 7 7 7 6 6 7 8 9 9
3 3 2 2 2 3 4 5 5 5 5 5 6 7 7 7 7 7 7 8 9 8 8 7 7 7 6 6 6 6 6 6 6 6 7 7 7 6 6 6 6 7 7 8
3 3 2 2 2 3 4 5 4 4 4 5 6 7 7 6 6 6 7 8 8 8 7 7 7 6 6 6 6 6 5 5 6 6 7 7 6 6 6 6 5 6 6 6
3 3 2 2 2 3 4 5 4 4 5 6 6 7 7 7 7 7 7 7 7 7 6 6 6 6 6 6 6 5 5 6 6 6 6 6 6 6 6 5 5 5 5 6
3 3 3 2 3 3 4 5 5 5 6 6 6 7 7 7 7 7 6 6 6 6 6 5 5 5 5 5 5 5 5 6 6 6 6 6 5 5 6 6 6 6 6 6
3 3 3 3 3 3 4 5 5 5 5 6 6 6 7 7 7 7 6 6 6 6 5 5 5 5 5 5 5 5 5 5 6 6 6 6 6 6 6 6 7 7 7 7
2 3 3 3 3 3 4 4 4 4 4 5 5 6 6 7 6 6 6 6 5 5 6 6 6 6 6 6 6 6 6 6 6 6 6 7 7 6 7 7 7 8 8 8
2 2 3 3 3 4 4 4 4 4 3 4 4 5 6 6 6 6 6 5 5 5 6 7 7 7 7 7 7 7 7 7 7 7 7 7 7 7 7 7 7 8 8 9